Regional Weather Roundup
Issued by NWS Boston, MA

Home | Current Version | Previous Version | Text Only | Print | Product List | Glossary On
Versions: 1 2 3 4 5 6 7 8 9 10 11 12 13 14 15 16 17 18 19 20 21 22 23 24 25 26 27 28 29 30 31 32 33 34 35 36 37 38 39 40 41 42 43 44 45 46 47 48 49 50
000
ASUS41 KBOX 230010
RWRBOX

REGIONAL WEATHER ROUNDUP
NATIONAL WEATHER SERVICE TAUNTON MA
800 PM EDT MON SEP 22 2014

NOTE:  "FAIR" INDICATES FEW OR NO CLOUDS BELOW 12,000 FEET WITH NO
SIGNIFICANT WEATHER AND/OR OBSTRUCTIONS TO VISIBILITY.  THE FOLLOWING
OBSERVATION LOCATIONS DO NOT REPORT PRESENT WEATHER...PROVINCETOWN...
SMITHFIELD...BLOCK ISLAND...KEENE...AND OXFORD.

MAZALL-230100-
EASTERN MASSACHUSETTS

CITY           SKY/WX    TMP DP  RH WIND       PRES   REMARKS
BOSTON         PTCLDY    61  41  47 W16G25    29.96R
6HR MIN TEMP:  61; 6HR MAX TEMP:  74;

BEVERLY        CLEAR     58  41  53 W10       29.94R
LAWRENCE       CLEAR     58  41  53 W13G20    29.97R
BEDFORD        CLEAR     56  41  57 W12G20    29.97R
BLUE HILL        N/A     56  41  57 NW15G22   29.95R
NORWOOD        CLEAR     59  40  49 NW15G21   29.97R
MARSHFIELD     NOT AVBL
PLYMOUTH       CLEAR     60  41  49 W9        29.96R
TAUNTON        CLEAR     60  42  51 VRB7      29.96R
NEW BEDFORD    CLEAR     59  45  59 VRB5      29.95R
$$

MAZALL-230100-
CAPE COD AND THE ISLANDS

CITY           SKY/WX    TMP DP  RH WIND       PRES   REMARKS
FALMOUTH       CLEAR     61  45  55 NW8       29.95R
HYANNIS        CLEAR     63  43  48 NW9       29.93R
CHATHAM        CLEAR     63  45  51 W8        29.94R
PROVINCETOWN   CLEAR     63  48  59 W13       29.94R
NANTUCKET      CLEAR     62  49  62 NW7       29.94R
MARTHAS VNYRD  CLEAR     60  47  61 NW6       29.95R
$$

MAZALL-230100-
CENTRAL AND WESTERN MASSACHUSETTS

CITY           SKY/WX    TMP DP  RH WIND       PRES   REMARKS
WORCESTER      CLEAR     50  38  63 W14G22    30.00R
6HR MIN TEMP:  50; 6HR MAX TEMP:  64;

FITCHBURG      CLEAR     55  39  54 W12       30.00R
ORANGE         CLEAR     51  38  60 NW6       30.01R
SPRINGFIELD    CLEAR     51  39  63 NW10      30.03R
WESTFIELD      PTCLDY    54  38  54 NW7G17    30.03R
NORTH ADAMS    CLOUDY    52  39  61 W14G21    30.05R
PITTSFIELD     CLOUDY    50  39  66 NW12G24   30.05R
$$

RIZALL-230100-
RHODE ISLAND

CITY           SKY/WX    TMP DP  RH WIND       PRES   REMARKS
PROVIDENCE     PTCLDY    60  43  53 NW10      29.98R
6HR MIN TEMP:  60; 6HR MAX TEMP:  74;

NEWPORT        CLEAR     63  46  54 NW13G20   29.97R
BLOCK ISLAND   PTCLDY    64  46  52 NW10G17   29.97R
WESTERLY       CLEAR     62  45  53 VRB5      29.99R
$$

CTZALL-230100-
CONNECTICUT

CITY           SKY/WX    TMP DP  RH WIND       PRES   REMARKS
BRADLEY INTL   PTCLDY    55  39  54 NW13G20   30.04R
6HR MIN TEMP:  55; 6HR MAX TEMP:  71;

HARTFORD       CLEAR     56  39  53 N12G21    30.04R
BRIDGEPORT     PTCLDY    60  42  51 W13G20    30.04R
DANBURY        CLEAR     55  38  52 W6        30.07R
GROTON         CLEAR     61  45  55 NW10      29.99R
NEW HAVEN      PTCLDY    63  43  48 NW10G17   30.03R
CHESTER        FAIR      57  43  58 NW12G21   30.03R
MERIDEN        CLEAR     58  40  51 NW9       30.04R
WILLIMANTIC    CLEAR     57  40  52 NW13G23   30.03R
OXFORD         PTCLDY    54  37  54 N10G17    30.06R
$$

MEZ002-015-021-024-NHZ003-005-008-011-012-014-VTZ005-008-230100-
NORTHERN NEW ENGLAND

CITY           SKY/WX    TMP DP  RH WIND       PRES   REMARKS
PORTLAND ME    PTCLDY    56  40  55 NW12      29.91R
6HR MIN TEMP:  55; 6HR MAX TEMP:  68;

BANGOR ME      CLOUDY    55  37  50 W10       29.86R
CONCORD NH     PTCLDY    55  37  50 W12       29.96R
MANCHESTER NH  PTCLDY    59  38  45 VRB6      29.95R
NASHUA NH      CLEAR     57  41  55 W8G16     29.98R
PORTSMOUTH NH  PTCLDY    59  41  52 NW10      29.92R
JAFFREY NH     CLEAR     51  39  63 W8        29.99R
KEENE NH       PTCLDY    54  34  47 NW9G16    30.01R
BURLINGTON VT  PTCLDY    51  37  58 W8        30.03R
MT. WASHINGTON FOG       25  25 100 NW71        N/A  VSB 1/16WCI   1
$$

NYZ052-076-230100-
EASTERN NEW YORK

CITY           SKY/WX    TMP DP  RH WIND       PRES   REMARKS
ALBANY         MOCLDY    53  39  59 NW6       30.07R
6HR MIN TEMP:  53; 6HR MAX TEMP:  61;

NEW YORK CITY  MOCLDY    61  43  51 NW15      30.06R
6HR MIN TEMP:  61; 6HR MAX TEMP:  72;

$$

ANZALL-230100-
MARINE OBSERVATIONS

STATION/POSITION TIME  TEMP    WIND        PRES    VSBY  WAVE
                       AIR SEA DIR/SP/G                  HT/PER
                 (UTC) (F)     (DEG/KT/KT) (MB)    (MI)  (FT/S)
BOSTON BUOY      2350   62 61  280/ 19/ 23 1013.5R         4/11
BUZZARDS BAY     2300          310/ 17/ 18 1013.9R
NANTUCKET SOUND  2350   67 68  300/ 17/ 21 1013.2R         2/ 4
MASS BAY-STELLWA 2304   64 61  270/ 16/ 19   N/A    1 7/8
ISLE OF SHOALS   0000   61     270/ 19/ 20 1012.6R
S OF BLOCK IS    NOT AVBL
$$

......................KEY.........................
  SKY/WX - SKY CONDITION/PRESENT WEATHER
  TMP    - TEMPERATURE IN FAHRENHEIT
  DWPT   - DEWPOINT IN FAHRENHEIT
  RH     - RELATIVE HUMIDITY IN PERCENT
  WIND   - DIRECTION AND SPEED IN MPH
  PRES   - MEAN SEA LEVEL PRESSURE IN INCHES OF HG
  WCI    - WIND CHILL INDEX
  VSB    - VISIBILITY IN MILES
  HX     - HEAT INDEX
  TC     - TEMPERATURE IN CELSIUS
  VRB    - VARIABLE WIND DIRECTION
  N/A    - NOT AVAILABLE



USA.gov is the U.S. government's official web portal to all federal, state and local government web resources and services.